ASA7004 KSEA-PAKT

Flight info

Callsign ASA7004
Flight time 1h 43m
Altitude 36000
Route BANGR9 PANGL PR ANN
Aircraft B737/M-SDE2E3FGHIRWXY/LB1

Departure

Time 2026-05-05 06:26
Airport Seattle–Tacoma International Airport (KSEA)

Arrival

Time 2026-05-05 08:09
Airport Ketchikan International Airport (PAKT)
Time Latitude Longitude Altitude Speed Heading
2026-05-05 05:36 47.45640 -122.30379 441 ft 0 kts 180°
2026-05-05 06:15 47.45657 -122.30379 434 ft 4 kts 181°
2026-05-05 06:15 47.45684 -122.30376 434 ft 4 kts 192°
2026-05-05 06:15 47.45705 -122.30363 429 ft 4 kts 238°
2026-05-05 06:15 47.45709 -122.30346 426 ft 1 kts 274°
2026-05-05 06:16 47.45709 -122.30343 426 ft 0 kts 274°
2026-05-05 06:17 47.45708 -122.30343 426 ft 0 kts 274°
2026-05-05 06:20 47.45709 -122.30348 426 ft 1 kts 273°
2026-05-05 06:20 47.45710 -122.30385 431 ft 7 kts 275°
2026-05-05 06:20 47.45714 -122.30479 437 ft 13 kts 271°
2026-05-05 06:21 47.45745 -122.30618 428 ft 16 kts 341°
2026-05-05 06:21 47.45822 -122.30620 431 ft 15 kts 359°
2026-05-05 06:22 47.45842 -122.30622 437 ft 15 kts 351°
2026-05-05 06:22 47.45944 -122.30620 426 ft 15 kts
2026-05-05 06:22 47.46046 -122.30622 429 ft 15 kts 356°
2026-05-05 06:23 47.46130 -122.30616 436 ft 17 kts
2026-05-05 06:23 47.46253 -122.30617 432 ft 18 kts
2026-05-05 06:23 47.46361 -122.30637 437 ft 6 kts 312°
2026-05-05 06:23 47.46368 -122.30651 438 ft 0 kts 304°
2026-05-05 06:24 47.46368 -122.30652 438 ft 0 kts 304°
2026-05-05 06:24 47.46374 -122.30668 439 ft 3 kts 292°
2026-05-05 06:24 47.46372 -122.30720 432 ft 7 kts 242°
2026-05-05 06:24 47.46324 -122.30767 438 ft 11 kts 197°
2026-05-05 06:25 47.46253 -122.30777 432 ft 0 kts 181°
2026-05-05 06:25 47.46009 -122.30780 428 ft 86 kts 180°
2026-05-05 06:25 47.45151 -122.30796 468 ft 166 kts 181°
2026-05-05 06:26 47.44401 -122.30811 881 ft 183 kts 181°
2026-05-05 06:26 47.43056 -122.30824 1801 ft 212 kts 181°
2026-05-05 06:26 47.41495 -122.30850 2584 ft 233 kts 180°
2026-05-05 06:26 47.40339 -122.30872 3215 ft 244 kts 181°
2026-05-05 06:27 47.38843 -122.30902 3742 ft 264 kts 181°
2026-05-05 06:27 47.35110 -122.31043 5550 ft 279 kts 181°
2026-05-05 06:27 47.34406 -122.31080 5965 ft 280 kts 185°
2026-05-05 06:28 47.32487 -122.32069 6733 ft 293 kts 218°
2026-05-05 06:28 47.31251 -122.34398 7706 ft 291 kts 251°
2026-05-05 06:28 47.30928 -122.37208 8620 ft 293 kts 270°
2026-05-05 06:28 47.30830 -122.40221 9709 ft 293 kts 268°
2026-05-05 06:29 47.30734 -122.42771 10474 ft 297 kts 274°
2026-05-05 06:29 47.31260 -122.45777 10850 ft 316 kts 299°
2026-05-05 06:29 47.32363 -122.48724 11218 ft 337 kts 301°
2026-05-05 06:29 47.33583 -122.51691 11968 ft 343 kts 310°
2026-05-05 06:30 47.35280 -122.54136 12929 ft 341 kts 321°
2026-05-05 06:30 47.37087 -122.56414 13902 ft 343 kts 322°
2026-05-05 06:30 47.38896 -122.58672 14750 ft 346 kts 322°
2026-05-05 06:30 47.40739 -122.60983 15647 ft 349 kts 322°
2026-05-05 06:31 47.42593 -122.63328 16534 ft 352 kts 322°
2026-05-05 06:31 47.44456 -122.65704 17393 ft 356 kts 322°
2026-05-05 06:31 47.46193 -122.67929 18179 ft 360 kts 322°
2026-05-05 06:31 47.46756 -122.68653 18410 ft 361 kts 322°
2026-05-05 06:32 47.47046 -122.69026 18513 ft 362 kts 322°
2026-05-05 06:32 47.48261 -122.70589 18990 ft 364 kts 322°
2026-05-05 06:32 47.50180 -122.73065 19739 ft 367 kts 322°
2026-05-05 06:32 47.52112 -122.75561 20485 ft 371 kts 322°
2026-05-05 06:33 47.53893 -122.77864 21157 ft 374 kts 322°
2026-05-05 06:33 47.55859 -122.80410 21868 ft 378 kts 322°
2026-05-05 06:33 47.57799 -122.82925 22540 ft 381 kts 323°
2026-05-05 06:33 47.59805 -122.85527 23242 ft 385 kts 323°
2026-05-05 06:34 47.61820 -122.88143 23840 ft 389 kts 322°
2026-05-05 06:34 47.63863 -122.90798 24418 ft 392 kts 322°
2026-05-05 06:34 47.65894 -122.93551 24942 ft 397 kts 320°
2026-05-05 06:34 47.67876 -122.96430 25449 ft 402 kts 319°
2026-05-05 06:35 47.69862 -122.99391 25894 ft 406 kts 319°
2026-05-05 06:35 47.71853 -123.02381 26534 ft 407 kts 318°
2026-05-05 06:35 47.73851 -123.05376 27107 ft 410 kts 319°
2026-05-05 06:35 47.75871 -123.08393 27501 ft 414 kts 319°
2026-05-05 06:36 47.77890 -123.11389 27998 ft 417 kts 319°
2026-05-05 06:36 47.79948 -123.14443 28541 ft 418 kts 319°
2026-05-05 06:36 47.82013 -123.17515 29065 ft 421 kts 319°
2026-05-05 06:36 47.83995 -123.20466 29504 ft 423 kts 318°
2026-05-05 06:37 47.86083 -123.23585 29957 ft 426 kts 319°
2026-05-05 06:37 47.88184 -123.26715 30331 ft 429 kts 319°
2026-05-05 06:37 47.90303 -123.29872 30713 ft 431 kts 319°
2026-05-05 06:37 47.92427 -123.33039 31139 ft 432 kts 319°
2026-05-05 06:38 47.94550 -123.36214 31655 ft 431 kts 319°
2026-05-05 06:38 47.95948 -123.38308 32009 ft 429 kts 319°
2026-05-05 06:38 47.98050 -123.41460 32528 ft 427 kts 319°
2026-05-05 06:38 48.00140 -123.44595 33047 ft 425 kts 319°
2026-05-05 06:39 48.02227 -123.47729 33476 ft 425 kts 319°
2026-05-05 06:39 48.04312 -123.50863 33878 ft 425 kts 319°
2026-05-05 06:39 48.06391 -123.53994 34282 ft 424 kts 319°
2026-05-05 06:39 48.08461 -123.57116 34672 ft 422 kts 319°
2026-05-05 06:40 48.10525 -123.60231 35056 ft 420 kts 319°
2026-05-05 06:40 48.12576 -123.63329 35436 ft 418 kts 319°
2026-05-05 06:40 48.14625 -123.66409 35790 ft 416 kts 320°
2026-05-05 06:40 48.16887 -123.69076 36113 ft 411 kts 329°
2026-05-05 06:41 48.19284 -123.71380 36474 ft 409 kts 331°
2026-05-05 06:41 48.21709 -123.73600 36818 ft 407 kts 332°
2026-05-05 06:41 48.24131 -123.75796 37126 ft 406 kts 332°
2026-05-05 06:41 48.26544 -123.77999 37421 ft 406 kts 331°
2026-05-05 06:42 48.28940 -123.80210 37755 ft 404 kts 331°
2026-05-05 06:42 48.31330 -123.82438 38075 ft 403 kts 331°
2026-05-05 06:42 48.33706 -123.84671 38370 ft 402 kts 331°
2026-05-05 06:42 48.36074 -123.86908 38652 ft 402 kts 330°
2026-05-05 06:43 48.38437 -123.89149 38856 ft 402 kts 330°
2026-05-05 06:43 48.40802 -123.91396 39026 ft 402 kts 330°
2026-05-05 06:43 48.43172 -123.93653 39167 ft 404 kts 330°
2026-05-05 06:43 48.45545 -123.95914 39362 ft 404 kts 330°
2026-05-05 06:44 48.47916 -123.98178 39556 ft 404 kts 330°
2026-05-05 06:44 48.50210 -124.00370 39737 ft 404 kts 330°
2026-05-05 06:44 48.52583 -124.02640 39869 ft 405 kts 330°
2026-05-05 06:45 48.57292 -124.07149 39939 ft 412 kts 330°
2026-05-05 06:45 48.62181 -124.11841 39954 ft 419 kts 330°
2026-05-05 06:46 48.67088 -124.16567 39938 ft 420 kts 330°
2026-05-05 06:46 48.72022 -124.21329 39937 ft 421 kts 329°
2026-05-05 06:47 48.76899 -124.26045 39966 ft 422 kts 330°
2026-05-05 06:47 48.81846 -124.30835 39933 ft 421 kts 329°
2026-05-05 06:48 48.86741 -124.35595 39935 ft 419 kts 329°
2026-05-05 06:48 48.91643 -124.40370 39922 ft 418 kts 329°
2026-05-05 06:49 48.96521 -124.45121 39941 ft 415 kts 329°
2026-05-05 06:49 49.01381 -124.49870 39925 ft 414 kts 329°
2026-05-05 06:50 49.06223 -124.54623 39935 ft 414 kts 329°
2026-05-05 06:50 49.11056 -124.59393 39935 ft 414 kts 329°
2026-05-05 06:51 49.15896 -124.64154 39942 ft 414 kts 329°
2026-05-05 06:51 49.20730 -124.68936 39943 ft 414 kts 329°
2026-05-05 06:52 49.25574 -124.73727 39928 ft 416 kts 329°
2026-05-05 06:52 49.30406 -124.78518 39897 ft 417 kts 328°
2026-05-05 06:53 49.35277 -124.83363 39914 ft 418 kts 328°
2026-05-05 06:53 49.40160 -124.88230 39897 ft 419 kts 328°
2026-05-05 06:54 49.44936 -124.93026 39889 ft 420 kts 328°
2026-05-05 06:54 49.49834 -124.97920 39881 ft 420 kts 328°
2026-05-05 06:55 49.54720 -125.02820 39882 ft 419 kts 328°
2026-05-05 06:55 49.59600 -125.07733 39881 ft 418 kts 328°
2026-05-05 06:56 49.64470 -125.12648 39887 ft 418 kts 328°
2026-05-05 06:56 49.69327 -125.17562 39890 ft 417 kts 328°
2026-05-05 06:57 49.74178 -125.22481 39903 ft 417 kts 328°
2026-05-05 06:57 49.79029 -125.27413 39902 ft 417 kts 328°
2026-05-05 06:58 49.83843 -125.32318 39900 ft 417 kts 328°
2026-05-05 06:58 49.88686 -125.37265 39902 ft 417 kts 328°
2026-05-05 06:59 49.93531 -125.42225 39907 ft 417 kts 327°
2026-05-05 06:59 49.98376 -125.47200 39910 ft 418 kts 327°
2026-05-05 07:00 50.03221 -125.52186 39918 ft 418 kts 327°
2026-05-05 07:00 50.08063 -125.57182 39919 ft 419 kts 327°
2026-05-05 07:01 50.12917 -125.62198 39931 ft 419 kts 327°
2026-05-05 07:01 50.17769 -125.67230 39914 ft 418 kts 327°
2026-05-05 07:02 50.22607 -125.72259 39923 ft 418 kts 327°
2026-05-05 07:02 50.27442 -125.77296 39930 ft 417 kts 327°
2026-05-05 07:03 50.32268 -125.82337 39926 ft 416 kts 327°
2026-05-05 07:03 50.37079 -125.87372 39939 ft 416 kts 327°
2026-05-05 07:04 50.41892 -125.92426 39920 ft 416 kts 327°
2026-05-05 07:04 50.46700 -125.97486 39919 ft 416 kts 327°
2026-05-05 07:05 50.51510 -126.02559 39929 ft 416 kts 326°
2026-05-05 07:05 50.56319 -126.07645 39931 ft 416 kts 326°
2026-05-05 07:06 50.61125 -126.12740 39939 ft 417 kts 326°
2026-05-05 07:06 50.65942 -126.17859 39930 ft 418 kts 326°
2026-05-05 07:07 50.70730 -126.22961 39943 ft 418 kts 326°
2026-05-05 07:07 50.75584 -126.28146 39933 ft 419 kts 326°
2026-05-05 07:08 50.80407 -126.33310 39938 ft 419 kts 326°
2026-05-05 07:08 50.85202 -126.38459 39940 ft 420 kts 326°
2026-05-05 07:09 50.90036 -126.43663 39923 ft 420 kts 326°
2026-05-05 07:09 50.94866 -126.48873 39929 ft 420 kts 325°
2026-05-05 07:10 50.99680 -126.54082 39939 ft 420 kts 325°
2026-05-05 07:10 51.04498 -126.59316 39941 ft 419 kts 325°
2026-05-05 07:11 51.09307 -126.64542 39944 ft 420 kts 325°
2026-05-05 07:11 51.14132 -126.69795 39946 ft 420 kts 324°
2026-05-05 07:12 51.18952 -126.75065 39937 ft 421 kts 324°
2026-05-05 07:12 51.23780 -126.80358 39950 ft 421 kts 324°
2026-05-05 07:13 51.28611 -126.85664 39949 ft 422 kts 324°
2026-05-05 07:13 51.33420 -126.90962 39943 ft 422 kts 324°
2026-05-05 07:14 51.38259 -126.96298 39932 ft 423 kts 324°
2026-05-05 07:14 51.43097 -127.01659 39934 ft 423 kts 324°
2026-05-05 07:15 51.47929 -127.07021 39949 ft 423 kts 324°
2026-05-05 07:15 51.52747 -127.12386 39951 ft 421 kts 324°
2026-05-05 07:16 51.57558 -127.17750 39953 ft 421 kts 323°
2026-05-05 07:16 51.62370 -127.23141 39949 ft 421 kts 323°
2026-05-05 07:17 51.67181 -127.28544 39942 ft 422 kts 323°
2026-05-05 07:17 51.71989 -127.33959 39957 ft 421 kts 323°
2026-05-05 07:18 51.76801 -127.39372 39966 ft 421 kts 323°
2026-05-05 07:18 51.81609 -127.44805 39943 ft 422 kts 323°
2026-05-05 07:19 51.86384 -127.50228 39941 ft 422 kts 323°
2026-05-05 07:19 51.91203 -127.55710 39925 ft 424 kts 323°
2026-05-05 07:20 51.96022 -127.61203 39941 ft 424 kts 322°
2026-05-05 07:20 52.00845 -127.66716 39935 ft 424 kts 322°
2026-05-05 07:21 52.05670 -127.72248 39918 ft 425 kts 322°
2026-05-05 07:21 52.10496 -127.77794 39917 ft 425 kts 322°
2026-05-05 07:22 52.15327 -127.83357 39921 ft 425 kts 322°
2026-05-05 07:22 52.20156 -127.88939 39917 ft 426 kts 322°
2026-05-05 07:23 52.24984 -127.94527 39915 ft 425 kts 322°
2026-05-05 07:23 52.29811 -128.00134 39909 ft 426 kts 322°
2026-05-05 07:24 52.34570 -128.05683 39916 ft 426 kts 322°
2026-05-05 07:24 52.39394 -128.11319 39909 ft 426 kts 322°
2026-05-05 07:25 52.44246 -128.17003 39909 ft 426 kts 322°
2026-05-05 07:25 52.49030 -128.22621 39913 ft 426 kts 322°
2026-05-05 07:26 52.53849 -128.28297 39902 ft 426 kts 322°
2026-05-05 07:26 52.58659 -128.33977 39923 ft 426 kts 321°
2026-05-05 07:27 52.62593 -128.38637 39915 ft 426 kts 321°
2026-05-05 07:27 52.67356 -128.44290 39924 ft 426 kts 321°
2026-05-05 07:28 52.72173 -128.50027 39916 ft 426 kts 321°
2026-05-05 07:28 52.77761 -128.56696 39918 ft 427 kts 321°
2026-05-05 07:29 52.81794 -128.61523 39931 ft 427 kts 321°
2026-05-05 07:29 52.86587 -128.67278 39937 ft 427 kts 321°
2026-05-05 07:30 52.91394 -128.73061 39926 ft 427 kts 321°
2026-05-05 07:30 52.98592 -128.81754 39912 ft 426 kts 321°
2026-05-05 07:31 53.03376 -128.87549 39931 ft 425 kts 320°
2026-05-05 07:31 53.08149 -128.93352 39930 ft 425 kts 320°
2026-05-05 07:32 53.12911 -128.99156 39938 ft 424 kts 320°
2026-05-05 07:32 53.17673 -129.04974 39928 ft 425 kts 320°
2026-05-05 07:33 53.22437 -129.10817 39943 ft 426 kts 320°
2026-05-05 07:33 53.27211 -129.16687 39932 ft 427 kts 320°
2026-05-05 07:34 53.31996 -129.22586 39926 ft 428 kts 320°
2026-05-05 07:34 53.36783 -129.28504 39932 ft 428 kts 320°
2026-05-05 07:35 53.41576 -129.34446 39931 ft 429 kts 320°
2026-05-05 07:35 53.46337 -129.40369 39941 ft 429 kts 319°
2026-05-05 07:36 53.51131 -129.46344 39932 ft 429 kts 319°
2026-05-05 07:36 53.55902 -129.52333 39978 ft 426 kts 319°
2026-05-05 07:37 53.60666 -129.58296 39952 ft 427 kts 319°
2026-05-05 07:37 53.65440 -129.64290 39962 ft 428 kts 318°
2026-05-05 07:38 53.70221 -129.70320 39944 ft 430 kts 319°
2026-05-05 07:38 53.75009 -129.76376 39948 ft 431 kts 319°
2026-05-05 07:39 53.79565 -129.82158 39959 ft 430 kts 319°
2026-05-05 07:39 53.81883 -129.85106 39589 ft 436 kts 318°
2026-05-05 07:39 53.84295 -129.88176 39128 ft 431 kts 318°
2026-05-05 07:40 53.86696 -129.91236 38330 ft 431 kts 318°
2026-05-05 07:40 53.89071 -129.94268 37584 ft 425 kts 318°
2026-05-05 07:40 53.91427 -129.97280 36915 ft 422 kts 318°
2026-05-05 07:40 53.93769 -130.00279 36190 ft 423 kts 319°
2026-05-05 07:41 53.96117 -130.03290 35441 ft 424 kts 319°
2026-05-05 07:41 53.98448 -130.06286 34647 ft 427 kts 319°
2026-05-05 07:41 54.00850 -130.09379 33777 ft 431 kts 320°
2026-05-05 07:41 54.03220 -130.12433 33007 ft 431 kts 320°
2026-05-05 07:42 54.05596 -130.15495 32386 ft 427 kts 320°
2026-05-05 07:42 54.07950 -130.18534 31772 ft 423 kts 320°
2026-05-05 07:42 54.10286 -130.21557 31187 ft 420 kts 319°
2026-05-05 07:42 54.12606 -130.24561 30597 ft 417 kts 319°
2026-05-05 07:43 54.14911 -130.27551 30021 ft 415 kts 319°
2026-05-05 07:43 54.17207 -130.30536 29329 ft 414 kts 319°
2026-05-05 07:43 54.19488 -130.33506 28686 ft 411 kts 319°
2026-05-05 07:43 54.21736 -130.36435 28080 ft 408 kts 319°
2026-05-05 07:44 54.23989 -130.39374 27468 ft 406 kts 319°
2026-05-05 07:44 54.26232 -130.42287 26877 ft 404 kts 320°
2026-05-05 07:44 54.28588 -130.44934 26233 ft 405 kts 324°
2026-05-05 07:44 54.30995 -130.47449 25621 ft 405 kts 325°
2026-05-05 07:45 54.33383 -130.49896 24984 ft 405 kts 325°
2026-05-05 07:45 54.35800 -130.52368 24456 ft 402 kts 325°
2026-05-05 07:45 54.38196 -130.54833 23954 ft 399 kts 324°
2026-05-05 07:45 54.40530 -130.57249 23460 ft 396 kts 324°
2026-05-05 07:46 54.42884 -130.59701 22869 ft 394 kts 324°
2026-05-05 07:46 54.45219 -130.62143 22322 ft 391 kts 324°
2026-05-05 07:46 54.47533 -130.64571 21792 ft 388 kts 324°
2026-05-05 07:46 54.49828 -130.66985 21276 ft 385 kts 324°
2026-05-05 07:47 54.52105 -130.69383 20760 ft 383 kts 324°
2026-05-05 07:47 54.54369 -130.71772 20255 ft 380 kts 324°
2026-05-05 07:47 54.56617 -130.74146 19766 ft 378 kts 324°
2026-05-05 07:47 54.58850 -130.76508 19286 ft 375 kts 324°
2026-05-05 07:48 54.61067 -130.78856 18814 ft 373 kts 324°
2026-05-05 07:48 54.63276 -130.81198 18348 ft 371 kts 324°
2026-05-05 07:48 54.65469 -130.83527 17845 ft 369 kts 324°
2026-05-05 07:48 54.67649 -130.85845 17346 ft 366 kts 325°
2026-05-05 07:49 54.69812 -130.88146 16855 ft 364 kts 325°
2026-05-05 07:49 54.71959 -130.90435 16360 ft 361 kts 325°
2026-05-05 07:49 54.74091 -130.92710 15881 ft 359 kts 325°
2026-05-05 07:49 54.76213 -130.94977 15411 ft 357 kts 326°
2026-05-05 07:50 54.78237 -130.97143 14959 ft 355 kts 326°
2026-05-05 07:50 54.80336 -130.99391 14491 ft 354 kts 326°
2026-05-05 07:50 54.82420 -131.01626 14052 ft 351 kts 326°
2026-05-05 07:50 54.84494 -131.03853 13588 ft 349 kts 326°
2026-05-05 07:51 54.86553 -131.06065 13120 ft 347 kts 326°
2026-05-05 07:51 54.88587 -131.08253 12797 ft 340 kts 326°
2026-05-05 07:51 54.90535 -131.10350 12709 ft 326 kts 326°
2026-05-05 07:51 54.92451 -131.12413 12620 ft 314 kts 326°
2026-05-05 07:52 54.94258 -131.14363 12449 ft 305 kts 326°
2026-05-05 07:52 54.96050 -131.16302 12108 ft 303 kts 326°
2026-05-05 07:52 54.97840 -131.18242 11749 ft 302 kts 326°
2026-05-05 07:52 54.99619 -131.20170 11421 ft 301 kts 326°
2026-05-05 07:53 55.01383 -131.22085 11090 ft 299 kts 326°
2026-05-05 07:53 55.03151 -131.24005 10744 ft 299 kts 326°
2026-05-05 07:53 55.04909 -131.25916 10433 ft 297 kts 326°
2026-05-05 07:53 55.06654 -131.27814 10121 ft 295 kts 326°
2026-05-05 07:54 55.08383 -131.29698 9827 ft 292 kts 326°
2026-05-05 07:54 55.10069 -131.31534 9735 ft 282 kts 325°
2026-05-05 07:54 55.11704 -131.33316 9654 ft 272 kts 325°
2026-05-05 07:54 55.13282 -131.35039 9580 ft 262 kts 325°
2026-05-05 07:55 55.14770 -131.36664 9502 ft 254 kts 325°
2026-05-05 07:55 55.16226 -131.38304 9420 ft 244 kts 319°
2026-05-05 07:55 55.17418 -131.40245 9358 ft 232 kts 311°
2026-05-05 07:55 55.18543 -131.42224 9250 ft 226 kts 312°
2026-05-05 07:56 55.19653 -131.44149 9072 ft 224 kts 312°
2026-05-05 07:56 55.20762 -131.46056 8841 ft 223 kts 313°
2026-05-05 07:56 55.21872 -131.47956 8615 ft 223 kts 313°
2026-05-05 07:56 55.22977 -131.49811 8375 ft 221 kts 317°
2026-05-05 07:57 55.24149 -131.51721 7624 ft 239 kts 309°
2026-05-05 07:57 55.25314 -131.53824 7013 ft 242 kts 307°
2026-05-05 07:57 55.26443 -131.55903 6465 ft 243 kts 312°
2026-05-05 07:57 55.27540 -131.57914 6466 ft 216 kts 313°
2026-05-05 07:58 55.28569 -131.59689 6312 ft 198 kts 303°
2026-05-05 07:58 55.29004 -131.61845 5923 ft 189 kts 265°
2026-05-05 07:58 55.28581 -131.63993 5427 ft 189 kts 233°
2026-05-05 07:58 55.27811 -131.65667 5023 ft 190 kts 227°
2026-05-05 07:59 55.26887 -131.67299 4597 ft 188 kts 209°
2026-05-05 07:59 55.25645 -131.67776 4175 ft 185 kts 169°
2026-05-05 07:59 55.24523 -131.66773 3786 ft 183 kts 139°
2026-05-05 07:59 55.23631 -131.65176 3543 ft 185 kts 134°
2026-05-05 08:00 55.22747 -131.63510 3513 ft 187 kts 134°
2026-05-05 08:00 55.21871 -131.61849 3499 ft 184 kts 134°
2026-05-05 08:00 55.21009 -131.60209 3494 ft 183 kts 134°
2026-05-05 08:00 55.20151 -131.58571 3494 ft 183 kts 134°
2026-05-05 08:01 55.19288 -131.56922 3485 ft 185 kts 133°
2026-05-05 08:01 55.18418 -131.55273 3497 ft 184 kts 134°
2026-05-05 08:01 55.17722 -131.53409 3468 ft 188 kts 105°
2026-05-05 08:01 55.17515 -131.51162 3487 ft 188 kts 112°
2026-05-05 08:02 55.16682 -131.49504 3495 ft 185 kts 150°
2026-05-05 08:02 55.15460 -131.48866 3494 ft 187 kts 177°
2026-05-05 08:02 55.14231 -131.49585 3485 ft 191 kts 216°
2026-05-05 08:02 55.13492 -131.51516 3487 ft 197 kts 252°
2026-05-05 08:03 55.13542 -131.53892 3476 ft 200 kts 290°
2026-05-05 08:03 55.14388 -131.55723 3483 ft 200 kts 329°
2026-05-05 08:03 55.15710 -131.56253 3488 ft 196 kts
2026-05-05 08:03 55.17035 -131.55699 3492 ft 197 kts 20°
2026-05-05 08:04 55.18341 -131.54958 3515 ft 199 kts 20°
2026-05-05 08:04 55.19678 -131.54189 3501 ft 205 kts 20°
2026-05-05 08:04 55.20985 -131.53447 3487 ft 199 kts 20°
2026-05-05 08:04 55.22296 -131.52708 3496 ft 198 kts 20°
2026-05-05 08:05 55.23623 -131.52132 3503 ft 199 kts
2026-05-05 08:05 55.24912 -131.52908 3252 ft 199 kts 316°
2026-05-05 08:05 55.25843 -131.54629 2970 ft 194 kts 314°
2026-05-05 08:05 55.26785 -131.56290 2680 ft 191 kts 315°
2026-05-05 08:06 55.27718 -131.57906 2382 ft 184 kts 316°
2026-05-05 08:06 55.28605 -131.59436 2097 ft 174 kts 317°
2026-05-05 08:06 55.29442 -131.60879 1830 ft 164 kts 317°
2026-05-05 08:06 55.30213 -131.62207 1597 ft 149 kts 317°
2026-05-05 08:07 55.30926 -131.63433 1355 ft 138 kts 316°
2026-05-05 08:07 55.31596 -131.64586 1152 ft 133 kts 316°
2026-05-05 08:07 55.32253 -131.65718 949 ft 131 kts 316°
2026-05-05 08:07 55.32906 -131.66841 741 ft 131 kts 315°
2026-05-05 08:08 55.33563 -131.67951 524 ft 131 kts 315°
2026-05-05 08:08 55.34202 -131.69043 334 ft 131 kts 316°
2026-05-05 08:08 55.34851 -131.70178 106 ft 130 kts 316°
2026-05-05 08:08 55.35434 -131.71168 100 ft 100 kts 316°
2026-05-05 08:09 55.35845 -131.71875 100 ft 65 kts 316°
2026-05-05 08:09 55.36056 -131.72235 97 ft 33 kts 315°
2026-05-05 08:09 55.36174 -131.72283 100 ft 14 kts 48°
2026-05-05 08:09 55.36151 -131.72129 96 ft 15 kts 134°
2026-05-05 08:10 55.36077 -131.71989 88 ft 20 kts 133°
2026-05-05 08:10 55.35971 -131.71792 72 ft 24 kts 133°
2026-05-05 08:10 55.35861 -131.71586 58 ft 18 kts 134°
2026-05-05 08:10 55.35762 -131.71413 51 ft 22 kts 136°
2026-05-05 08:11 55.35667 -131.71254 42 ft 13 kts 135°
2026-05-05 08:11 55.35616 -131.71126 41 ft 11 kts 90°
2026-05-05 08:11 55.35639 -131.71072 40 ft 9 kts 44°
2026-05-05 08:11 55.35654 -131.71044 38 ft 0 kts 46°
2026-05-05 08:12 55.35655 -131.71043 39 ft 1 kts 46°
2026-05-05 08:12 55.35661 -131.71031 41 ft 1 kts 46°
2026-05-05 08:12 55.35662 -131.71030 41 ft 0 kts 45°